Torna al catalogo

STARLINK-35986

AttivoComunicazioniVLEO
NORAD 66853·PAYLOAD·🇺🇸 United States

Lanciato Dec 2, 2025 da Cape Canaveral Space Force Station

Loading…

Prossimi Passaggi (prossime 24 ore)

TLE

AggiornatoSource: CelesTrak SupGP

Epoca: Sep 14, 2026, 20:57 UTC

1 66853C 25281F   26257.87340278  .00003046  00000+0  11034-3 0  2578
2 66853  43.0016 354.8770 0001610 272.2549 349.4552 15.27570043    14

Traccia STARLINK-35986 in tempo reale con AllMySat

Download on the App Store